• In Schweiz
  • Länderverzeichnis
  • Für 7 Tage
  • Wassertemperatur
  • Satellitenkarten
  • Wetterkarte
  • Widgets
  • user-avatar
    Anmelden

    Stündliche Wetter Ali Sabieh

    Heute, 19 Oktober, Donnerstag

    Zeit Temperatur Niederschläge Wind Luftdruck Luftfeuchtigkeit
    00:00 +28°C° 0 mm 4 m/S 697 mmHg 57%
    01:00 +28°C° 0 mm 4 m/S 697 mmHg 60%
    02:00 +27°C° 0 mm 3 m/S 696 mmHg 63%
    03:00 +26°C° 0 mm 4 m/S 696 mmHg 68%
    04:00 +26°C° 0 mm 3 m/S 696 mmHg 70%
    05:00 +26°C° 0 mm 3 m/S 697 mmHg 71%
    06:00 +26°C° 0 mm 3 m/S 697 mmHg 72%
    07:00 +27°C° 0 mm 3 m/S 698 mmHg 65%
    08:00 +28°C° 0 mm 3 m/S 698 mmHg 57%
    09:00 +29°C° 0 mm 3 m/S 699 mmHg 48%
    10:00 +31°C° 0 mm 3 m/S 699 mmHg 43%
    11:00 +33°C° 0 mm 4 m/S 698 mmHg 38%
    12:00 +34°C° 0 mm 4 m/S 698 mmHg 33%
    13:00 +35°C° 0 mm 5 m/S 698 mmHg 32%
    14:00 +35°C° 0 mm 5 m/S 697 mmHg 31%
    15:00 +36°C° 0 mm 5 m/S 697 mmHg 29%
    16:00 +35°C° 0 mm 6 m/S 697 mmHg 32%
    17:00 +34°C° 0 mm 6 m/S 697 mmHg 36%
    18:00 +33°C° 0 mm 6 m/S 697 mmHg 39%
    19:00 +32°C° 0 mm 5 m/S 697 mmHg 43%
    20:00 +30°C° 0 mm 5 m/S 697 mmHg 46%
    21:00 +29°C° 0 mm 4 m/S 698 mmHg 49%
    22:00 +29°C° 0 mm 4 m/S 698 mmHg 52%
    23:00 +28°C° 0 mm 4 m/S 698 mmHg 55%

    Morgen, 20 Oktober, Freitag

    Zeit Temperatur Niederschläge Wind Luftdruck Luftfeuchtigkeit
    00:00 +28°C° 0 mm 4 m/S 698 mmHg 58%
    01:00 +27°C° 0 mm 3 m/S 697 mmHg 60%
    02:00 +27°C° 0 mm 3 m/S 697 mmHg 63%
    03:00 +26°C° 0 mm 3 m/S 697 mmHg 65%
    04:00 +26°C° 0 mm 2 m/S 697 mmHg 67%
    05:00 +26°C° 0 mm 2 m/S 697 mmHg 69%
    06:00 +26°C° 0 mm 2 m/S 697 mmHg 71%
    07:00 +27°C° 0 mm 2 m/S 698 mmHg 64%
    08:00 +28°C° 0 mm 2 m/S 698 mmHg 57%
    09:00 +29°C° 0 mm 3 m/S 699 mmHg 50%
    10:00 +30°C° 0 mm 3 m/S 699 mmHg 44%
    11:00 +33°C° 0 mm 4 m/S 699 mmHg 37%
    12:00 +34°C° 0 mm 4 m/S 699 mmHg 31%
    13:00 +35°C° 0 mm 5 m/S 698 mmHg 30%
    14:00 +35°C° 0 mm 5 m/S 698 mmHg 29%
    15:00 +36°C° 0 mm 6 m/S 697 mmHg 27%
    16:00 +35°C° 0 mm 6 m/S 697 mmHg 31%
    17:00 +33°C° 0 mm 6 m/S 697 mmHg 34%
    18:00 +32°C° 0 mm 5 m/S 697 mmHg 37%
    19:00 +32°C° 0 mm 5 m/S 698 mmHg 39%
    20:00 +30°C° 0 mm 4 m/S 698 mmHg 41%
    21:00 +30°C° 0 mm 3 m/S 698 mmHg 43%
    22:00 +29°C° 0 mm 3 m/S 698 mmHg 46%
    23:00 +29°C° 0 mm 3 m/S 698 mmHg 49%

    übermorgen, 21 Oktober, Samstag

    Zeit Temperatur Niederschläge Wind Luftdruck Luftfeuchtigkeit
    00:00 +28°C° 0 mm 3 m/S 698 mmHg 51%
    01:00 +27°C° 0 mm 2 m/S 698 mmHg 54%
    02:00 +27°C° 0 mm 2 m/S 697 mmHg 56%
    03:00 +27°C° 0 mm 2 m/S 697 mmHg 59%
    04:00 +26°C° 0 mm 2 m/S 697 mmHg 61%
    05:00 +26°C° 0 mm 2 m/S 697 mmHg 62%
    06:00 +26°C° 0 mm 2 m/S 697 mmHg 64%
    07:00 +27°C° 0 mm 2 m/S 698 mmHg 57%
    08:00 +28°C° 0 mm 2 m/S 699 mmHg 49%
    09:00 +29°C° 0 mm 2 m/S 699 mmHg 42%
    10:00 +31°C° 0 mm 3 m/S 699 mmHg 36%
    11:00 +33°C° 0 mm 3 m/S 699 mmHg 31%
    12:00 +35°C° 0 mm 4 m/S 698 mmHg 25%
    13:00 +35°C° 0 mm 4 m/S 698 mmHg 25%
    14:00 +36°C° 0 mm 5 m/S 697 mmHg 24%
    15:00 +36°C° 0 mm 5 m/S 697 mmHg 24%
    16:00 +35°C° 0 mm 5 m/S 696 mmHg 27%
    17:00 +34°C° 0 mm 5 m/S 696 mmHg 30%
    18:00 +33°C° 0 mm 5 m/S 696 mmHg 33%
    19:00 +32°C° 0 mm 4 m/S 697 mmHg 36%
    20:00 +32°C° 0 mm 4 m/S 697 mmHg 38%
    21:00 +30°C° 0 mm 3 m/S 698 mmHg 40%
    22:00 +29°C° 0 mm 3 m/S 698 mmHg 43%
    23:00 +29°C° 0 mm 3 m/S 698 mmHg 46%

    22 Oktober, Sonntag

    Zeit Temperatur Niederschläge Wind Luftdruck Luftfeuchtigkeit
    00:00 +28°C° 0 mm 3 m/S 697 mmHg 48%
    01:00 +28°C° 0 mm 2 m/S 697 mmHg 51%
    02:00 +27°C° 0 mm 2 m/S 696 mmHg 54%
    03:00 +27°C° 0 mm 2 m/S 696 mmHg 56%
    04:00 +26°C° 0 mm 1 m/S 696 mmHg 57%
    05:00 +26°C° 0 mm 1 m/S 697 mmHg 58%
    06:00 +26°C° 0 mm 1 m/S 697 mmHg 60%
    07:00 +27°C° 0 mm 2 m/S 698 mmHg 52%
    08:00 +29°C° 0 mm 2 m/S 698 mmHg 44%
    09:00 +30°C° 0 mm 2 m/S 699 mmHg 36%
    10:00 +33°C° 0 mm 3 m/S 699 mmHg 32%
    11:00 +34°C° 0 mm 3 m/S 698 mmHg 28%
    12:00 +35°C° 0 mm 4 m/S 698 mmHg 24%
    13:00 +36°C° 0 mm 4 m/S 697 mmHg 24%
    14:00 +36°C° 0 mm 5 m/S 697 mmHg 24%
    15:00 +36°C° 0 mm 5 m/S 696 mmHg 25%
    16:00 +35°C° 0 mm 5 m/S 696 mmHg 28%
    17:00 +34°C° 0 mm 5 m/S 696 mmHg 31%
    18:00 +33°C° 0 mm 5 m/S 696 mmHg 34%
    19:00 +32°C° 0 mm 5 m/S 696 mmHg 36%
    20:00 +32°C° 0 mm 4 m/S 697 mmHg 37%
    21:00 +30°C° 0 mm 3 m/S 697 mmHg 39%
    22:00 +30°C° 0 mm 3 m/S 697 mmHg 41%
    23:00 +29°C° 0 mm 3 m/S 696 mmHg 42%

    23 Oktober, Montag

    Zeit Temperatur Niederschläge Wind Luftdruck Luftfeuchtigkeit
    00:00 +29°C° 0 mm 3 m/S 696 mmHg 44%
    01:00 +28°C° 0 mm 2 m/S 696 mmHg 47%
    02:00 +28°C° 0 mm 2 m/S 695 mmHg 50%
    03:00 +27°C° 0 mm 2 m/S 695 mmHg 53%
    04:00 +27°C° 0 mm 1 m/S 696 mmHg 54%
    05:00 +26°C° 0 mm 1 m/S 696 mmHg 56%
    06:00 +26°C° 0 mm 1 m/S 696 mmHg 57%
    07:00 +28°C° 0 mm 1 m/S 697 mmHg 50%
    08:00 +29°C° 0 mm 2 m/S 698 mmHg 43%
    09:00 +30°C° 0 mm 2 m/S 698 mmHg 37%
    10:00 +33°C° 0 mm 3 m/S 698 mmHg 33%
    11:00 +34°C° 0 mm 4 m/S 697 mmHg 29%
    12:00 +35°C° 0 mm 4 m/S 697 mmHg 25%
    13:00 +36°C° 0 mm 5 m/S 696 mmHg 26%
    14:00 +36°C° 0 mm 5 m/S 696 mmHg 26%
    15:00 +36°C° 0 mm 6 m/S 695 mmHg 26%
    16:00 +35°C° 0 mm 6 m/S 695 mmHg 29%
    17:00 +34°C° 0 mm 6 m/S 696 mmHg 32%
    18:00 +33°C° 0 mm 6 m/S 696 mmHg 35%
    19:00 +32°C° 0 mm 5 m/S 696 mmHg 37%
    20:00 +30°C° 0 mm 4 m/S 697 mmHg 39%
    21:00 +30°C° 0 mm 3 m/S 697 mmHg 41%
    22:00 +29°C° 0 mm 3 m/S 697 mmHg 44%
    23:00 +29°C° 0 mm 3 m/S 696 mmHg 47%

    24 Oktober, Dienstag

    Zeit Temperatur Niederschläge Wind Luftdruck Luftfeuchtigkeit
    00:00 +28°C° 0 mm 3 m/S 696 mmHg 50%
    01:00 +28°C° 0 mm 3 m/S 696 mmHg 55%
    02:00 +27°C° 0 mm 3 m/S 695 mmHg 59%
    03:00 +26°C° 0 mm 3 m/S 695 mmHg 64%
    04:00 +26°C° 0 mm 3 m/S 696 mmHg 66%
    05:00 +26°C° 0 mm 2 m/S 696 mmHg 68%
    06:00 +26°C° 0 mm 2 m/S 696 mmHg 70%
    07:00 +27°C° 0 mm 3 m/S 697 mmHg 62%
    08:00 +28°C° 0 mm 4 m/S 698 mmHg 53%
    09:00 +30°C° 0 mm 5 m/S 698 mmHg 44%
    10:00 +32°C° 0 mm 6 m/S 698 mmHg 39%
    11:00 +33°C° 0 mm 6 m/S 698 mmHg 34%
    12:00 +35°C° 0 mm 7 m/S 697 mmHg 29%
    13:00 +35°C° 0 mm 8 m/S 697 mmHg 30%
    14:00 +35°C° 0 mm 8 m/S 696 mmHg 31%
    15:00 +34°C° 0 mm 8 m/S 695 mmHg 32%
    16:00 +33°C° 0 mm 8 m/S 696 mmHg 40%
    17:00 +32°C° 0 mm 7 m/S 696 mmHg 47%
    18:00 +29°C° 0 mm 7 m/S 696 mmHg 55%
    19:00 +28°C° 0 mm 7 m/S 696 mmHg 60%
    20:00 +28°C° 0 mm 6 m/S 697 mmHg 65%
    21:00 +27°C° 0 mm 6 m/S 697 mmHg 70%
    22:00 +27°C° 0 mm 6 m/S 697 mmHg 71%
    23:00 +27°C° 0 mm 6 m/S 697 mmHg 72%
    Mehr zeigen